TimeEDT,TemperatureF,Dew PointF,Humidity,Sea Level PressureIn,VisibilityMPH,Wind Direction,Wind SpeedMPH,Gust SpeedMPH,PrecipitationIn,Events,Conditions,WindDirDegrees,DateUTC
12:54 AM,64.0,55.0,73,30.01,10.0,WSW,10.4,-,N/A,,Mostly Cloudy,250,2013-04-25 04:54:00
1:24 AM,64.4,53.6,68,30.05,10.0,NW,20.7,25.3,N/A,,Overcast,310,2013-04-25 05:24:00
1:54 AM,62.1,51.1,67,30.04,10.0,NNW,11.5,-,N/A,,Overcast,330,2013-04-25 05:54:00
2:13 AM,60.8,50.0,68,30.07,10.0,NW,8.1,-,N/A,,Overcast,320,2013-04-25 06:13:00
2:54 AM,57.9,45.0,62,30.05,10.0,NNW,9.2,-,N/A,,Mostly Cloudy,330,2013-04-25 06:54:00
3:54 AM,57.0,43.0,59,30.07,10.0,NNW,11.5,-,N/A,,Overcast,330,2013-04-25 07:54:00
4:54 AM,55.0,41.0,59,30.12,10.0,NNW,6.9,-,N/A,,Mostly Cloudy,330,2013-04-25 08:54:00
5:54 AM,52.0,37.9,59,30.15,10.0,North,5.8,-,N/A,,Mostly Cloudy,350,2013-04-25 09:54:00
6:54 AM,48.0,34.0,58,30.20,10.0,North,5.8,-,N/A,,Scattered Clouds,10,2013-04-25 10:54:00
7:54 AM,48.9,33.1,54,30.22,10.0,North,9.2,17.3,N/A,,Mostly Cloudy,360,2013-04-25 11:54:00
8:54 AM,50.0,32.0,50,30.24,10.0,North,11.5,18.4,N/A,,Scattered Clouds,360,2013-04-25 12:54:00
9:54 AM,52.0,32.0,47,30.24,10.0,North,5.8,18.4,N/A,,Clear,350,2013-04-25 13:54:00
10:54 AM,55.0,34.0,45,30.24,10.0,NNE,8.1,-,N/A,,Clear,20,2013-04-25 14:54:00
11:54 AM,57.9,35.1,42,30.24,10.0,Variable,3.5,-,N/A,,Clear,0,2013-04-25 15:54:00
12:54 PM,60.1,33.1,36,30.24,10.0,NNW,8.1,-,N/A,,Clear,330,2013-04-25 16:54:00
1:54 PM,64.0,34.0,33,30.22,10.0,Calm,Calm,-,N/A,,Clear,0,2013-04-25 17:54:00
2:54 PM,64.0,32.0,30,30.21,10.0,WSW,3.5,-,N/A,,Clear,250,2013-04-25 18:54:00
3:54 PM,66.0,28.0,24,30.20,10.0,Calm,Calm,-,N/A,,Clear,0,2013-04-25 19:54:00
4:54 PM,68.0,26.1,21,30.18,10.0,North,3.5,-,N/A,,Clear,10,2013-04-25 20:54:00
5:54 PM,68.0,24.1,19,30.18,10.0,WSW,3.5,-,N/A,,Clear,250,2013-04-25 21:54:00
6:54 PM,68.0,23.0,18,30.19,10.0,Calm,Calm,-,N/A,,Clear,0,2013-04-25 22:54:00
7:54 PM,64.0,26.1,24,30.20,10.0,Calm,Calm,-,N/A,,Clear,0,2013-04-25 23:54:00
8:54 PM,59.0,33.1,38,30.23,10.0,Calm,Calm,-,N/A,,Clear,0,2013-04-26 00:54:00
9:54 PM,57.9,36.0,44,30.26,10.0,Calm,Calm,-,N/A,,Clear,0,2013-04-26 01:54:00
10:54 PM,57.0,30.0,36,30.28,10.0,NNW,3.5,-,N/A,,Clear,340,2013-04-26 02:54:00
11:54 PM,52.0,35.1,53,30.28,10.0,Calm,Calm,-,N/A,,Clear,0,2013-04-26 03:54:00